Location: Arnolds Mill
(42.3415°N, 73.5951°W)
Time: 11:15:25
(UTC+00:00)

BlueWalker 3 - Pass Details

Date: 29 June 2024
Orbit: 480 x 492 km, 53.2° (Epoch: 13 July)

Event Time Altitude Azimuth Distance (km) Brightness Sun altitude
Rises 03:07:26 0° 310° (NW) 2,542 6.7 -19.7°
Reaches altitude 10° 03:09:56 10° 325° (NW) 1,660 5.8 -19.9°
Maximum altitude 03:12:59 23° 20° (NNE) 1,055 4.0 -20.1°
Enters shadow 03:15:43 12° 72° (ENE) 1,551 4.3 -20.3°
